Location: Tumbler Ridge
(55.1167°N, 121.0000°W)
Time: 20:36:30
(UTC-07:00)

Daily predictions for brighter satellites

Satellite Brightness Start Highest point End
(mag) Time Altitude Azimuth Time Altitude Azimuth Time Altitude Azimuth
Cosmos 2227 4.4 20:28:20 10° NW 20:34:08 85° WSW 20:39:52 10° SSE
Cosmos 405 Rocket 4.3 20:33:55 10° NNE 20:36:39 19° ENE 20:39:21 10° ESE
Cosmos 1153 Rocket 4.5 20:30:45 10° S 20:36:51 68° E 20:42:57 10° NNE
H-2A R/B 3.8 20:36:32 10° E 20:39:20 15° NE 20:42:07 10° NNE
NOSS 7 (D) 4.5 20:38:20 10° SW 20:41:41 89° SE 20:45:26 10° NE
Meteor 1-29 3.7 20:38:42 10° N 20:42:09 60° WNW 20:45:35 10° SSW
Meteor 1-21 4.3 20:36:47 10° N 20:42:34 69° ENE 20:48:22 10° SSE
Cosmos 1125 Rocket 3.7 20:37:47 10° NNW 20:42:59 61° ENE 20:48:09 10° SE
Cosmos 1953 Rocket 3.7 20:40:25 10° N 20:44:50 57° ENE 20:49:16 10° SSE
USA 215 3.4 20:41:05 10° E 20:47:39 78° N 20:54:11 10° WNW
Cosmos 2278 Rocket 4.1 20:46:37 10° NNW 20:50:41 19° NNE 20:54:44 10° ENE
Cosmos 1743 3.1 20:47:10 10° SSE 20:50:53 43° E 20:54:37 10° NNE
Cosmos 468 Rocket 4.0 20:46:04 10° S 20:51:07 62° ESE 20:56:13 10° NNE
Helios 1B rocket 3.6 20:48:03 10° N 20:52:04 49° WNW 20:56:02 10° SW
H-2A R/B 2.5 20:49:40 10° SE 20:53:37 44° ENE 20:57:39 10° N
Cosmos 841 Rocket 4.1 20:50:03 10° SSE 20:54:42 34° ESE 20:59:21 10° NE
Cosmos 1802 Rocket 4.2 20:49:43 10° SSE 20:55:55 53° E 21:02:09 10° NNE
Cosmos 2016 Rocket 4.3 20:51:52 10° SSE 20:57:42 46° E 21:03:38 10° NNE
Cosmos 1697 Rocket 2.7 20:52:48 10° SSW 20:58:23 66° ESE 21:04:00 10° NE
SPOT 1/Viking Rocket 4.4 20:53:57 10° ESE 20:58:32 34° ENE 21:03:11 10° N
Lacrosse 5 4.3 20:59:32 10° W 21:02:32 16° SW 21:05:31 10° SSW
USA 186 3.2 21:00:07 10° SSW 21:02:40 31° W 21:05:04 10° NNW
Cosmos 1758 Rocket 3.5 20:58:35 10° N 21:02:58 72° ENE 21:07:17 10° SSE
Cosmos 1939 Rocket 2.9 20:59:25 10° SSE 21:03:34 76° ENE 21:07:46 10° NNW
Cosmos 1844 Rocket 4.1 21:00:42 10° NNW 21:05:25 27° NNE 21:10:08 10° E
Cosmos 2098 Rocket 4.2 20:59:55 10° SSE 21:05:29 38° E 21:10:01 10° NNE
Cosmos 1814 Rocket 4.0 21:01:04 10° SSW 21:06:21 69° ESE 21:11:37 10° NNE
ARGOS 3.9 21:01:55 12° ESE 21:06:28 37° ENE 21:11:25 10° N
CZ-4 SHROUD 4.5 21:06:26 15° ESE 21:08:13 25° ENE 21:10:49 10° N
Cosmos 372 Rocket 4.1 21:03:33 10° NNW 21:08:40 62° ENE 21:13:12 13° SE
Cosmos 2173 Rocket 4.0 21:02:55 10° S 21:09:13 70° E 21:15:29 10° NNE
SJ-11-01 4.5 21:05:14 10° S 21:09:55 76° WSW 21:14:38 10° NNW
Iridium 4 Rocket 4.2 21:05:42 10° N 21:10:37 52° W 21:15:06 10° SSW
MetOp-B 4.4 21:07:02 11° SE 21:12:09 56° ENE 21:17:24 10° N
SL-16 R/B 3.1 21:10:11 10° SSE 21:14:49 26° ESE 21:19:27 10° NE
YAOGAN 6 3.0 21:17:20 16° SE 21:20:06 48° ENE 21:23:44 10° N
SPOT 5 2.8 21:15:53 11° SSE 21:20:28 67° ENE 21:25:03 10° NNW
deb Chang Zheng 4 4.3 21:17:20 10° NNE 21:21:27 35° E 21:25:22 11° SSE
Cosmos 1980 Rocket 2.2 21:17:46 10° SSW 21:23:23 64° ESE 21:29:03 10° NE
CZ-4 DEB 3.9 21:21:28 10° S 21:24:30 43° W 21:27:32 10° NNW
ALOS 4.4 21:20:45 10° SSW 21:24:43 27° W 21:28:42 10° NW
Cosmos 2360 Rocket 3.8 21:24:17 14° ESE 21:24:45 14° E 21:27:37 10° ENE
Cosmos 1842 3.3 21:21:43 10° NNW 21:25:39 84° W 21:29:33 10° S
Cosmos 1666 2.8 21:24:14 10° S 21:27:55 51° E 21:31:39 10° NNE
Cosmos 1707 4.0 21:25:03 10° N 21:28:27 27° ENE 21:30:10 20° ESE
Cosmos 1656 4.0 21:23:07 10° SW 21:28:42 68° NW 21:34:13 10° NNE
Terra 3.2 21:25:58 15° ESE 21:28:43 25° ENE 21:32:36 10° N
Cosmos 2100 Rocket 4.1 21:23:24 10° SSW 21:29:40 84° WNW 21:35:54 10° N
Cosmos 1340 4.3 21:32:19 10° NNW 21:35:49 34° W 21:39:17 10° SSW
Tsikada Rocket 4.1 21:30:21 10° N 21:36:49 86° ENE 21:43:15 10° S
Envisat 3.4 21:33:58 10° S 21:39:00 63° WSW 21:44:04 10° NNW
Cosmos 2263 Rocket 2.2 21:34:00 10° NW 21:39:37 87° WSW 21:43:45 19° SSE
Cosmos 1606 Rocket 3.6 21:35:13 10° SSW 21:39:39 87° WNW 21:44:10 10° NNE
Cosmos 2058 Rocket 3.1 21:37:42 10° S 21:42:12 70° E 21:46:42 10° NNE
SL-08 RB Rocket 4.0 21:42:32 22° SE 21:45:18 53° ENE 21:49:48 10° N
ATLAS CENTAUR R/B 3.7 21:42:43 10° WNW 21:46:47 26° N 21:50:41 10° NE
Cosmos 2061 Rocket 4.3 21:43:27 10° SSW 21:49:42 69° WNW 21:55:56 10° N
Cosmos 1459 Rocket 4.3 21:43:47 10° SSW 21:49:50 67° WNW 21:56:01 10° N
NOSS 2 (A) 4.4 21:51:12 10° NW 21:53:30 50° NE 21:53:45 46° ENE
ERS-1 Rocket 4.3 21:50:53 10° SSW 21:55:33 38° W 22:00:15 10° NNW
MetOp-A 4.3 21:53:57 14° S 21:58:33 71° WSW 22:03:56 10° NNW
Cosmos 2322 Rocket 2.3 21:53:31 10° S 21:58:56 52° ESE 22:04:24 10° NE
Cosmos 1441 Rocket 3.9 21:55:41 10° N 21:59:25 40° ENE 22:00:35 31° ESE
Cosmos 1725 Rocket 3.9 21:54:07 10° S 22:00:20 81° E 22:06:39 10° NNE
Genesis I 3.8 21:56:50 10° NW 22:00:42 50° SW 22:02:26 28° S
Cosmos 1726 Rocket 4.0 21:57:06 10° SSW 22:01:28 65° WNW 22:05:55 10° N
Cosmos 1763 Rocket 3.8 22:04:53 10° SW 22:09:57 68° WNW 22:15:02 10° NNE
SL-19 R/B 4.3 22:06:09 10° NNE 22:11:32 53° ESE 22:14:31 25° SSE
Cosmos 405 Rocket 3.2 22:09:24 10° NNW 22:13:06 55° W 22:14:59 26° SSW
Cosmos 836 Rocket 4.5 22:07:55 10° SSW 22:13:14 88° ESE 22:18:36 10° NNE
Meteor 2-9 Rocket 4.2 22:08:21 10° SSW 22:13:48 80° WNW 22:19:11 10° NNE
Cosmos 1812 Rocket 3.8 22:12:34 36° SE 22:13:55 49° E 22:18:07 10° NNE
PSLV R/B 4.0 22:13:23 29° SSW 22:14:33 45° W 22:17:33 10° NNW
SWAS 4.4 22:11:07 10° SW 22:15:27 89° SSE 22:19:51 10° NE
H-2A R/B 2.0 22:15:46 33° SE 22:17:56 65° ENE 22:22:49 10° NNW
Meteor 2-5 Rocket 3.8 22:12:47 10° NNW 22:18:46 86° WSW 22:22:18 25° S
Cosmos 783 Rocket 4.5 22:14:42 15° S 22:19:03 61° ESE 22:24:15 10° NNE
ASTEX 1 3.8 22:14:15 10° N 22:19:13 64° W 22:24:09 10° SSW
Cosmos 2233 Rocket 3.9 22:15:11 17° S 22:20:08 74° E 22:26:25 10° NNE
Meteor 1-24 Rocket 3.9 22:15:14 10° N 22:21:17 67° ENE 22:24:13 31° SE
Cosmos 2360 4.4 22:16:06 10° SW 22:21:51 77° NW 22:27:38 10° NNE
Cosmos 2228 3.3 22:22:03 14° SSW 22:25:43 66° WNW 22:30:02 10° N
Cosmos 1818 4.4 22:21:31 10° NW 22:26:48 45° NNE 22:30:04 22° E
DELTA 2 DEB (DPAF) 4.1 22:26:04 40° SSE 22:27:37 75° ENE 22:32:07 10° NNW
H-2A R/B 3.8 22:26:26 11° SSW 22:29:50 27° W 22:33:27 10° NW
USA 215 3.2 22:27:13 29° SE 22:30:47 73° SSW 22:37:21 10° WNW
COSMOS 2428 4.0 22:36:28 23° E 22:36:28 23° E 22:40:08 10° NE
Cosmos 2278 Rocket 2.9 22:30:49 10° NNW 22:36:16 44° NE 22:38:51 27° E
Cosmos 540 Rocket 3.3 22:31:34 12° SSW 22:36:16 83° ESE 22:41:27 10° NNE
Cosmos 841 Rocket 4.3 22:31:20 10° SW 22:36:26 52° NW 22:41:33 10° NNE
SPOT 1/Viking Rocket 4.2 22:34:36 22° SSW 22:37:47 52° W 22:42:54 10° NNW
Cosmos 332 Rocket 3.8 22:34:12 11° SSW 22:38:53 89° WNW 22:43:51 10° NNE
Cosmos 371 Rocket 3.2 22:38:07 31° S 22:40:24 71° ESE 22:45:15 10° NNE
Cosmos 1697 Rocket 4.3 22:37:34 10° WSW 22:42:46 36° NW 22:47:59 10° NNE
Cosmos 1953 4.2 22:45:56 18° ENE 22:45:56 18° ENE 22:47:58 10° NE
Cosmos 1766 4.3 22:46:50 32° ENE 22:46:50 32° ENE 22:49:45 10° NNE
ARGOS 3.8 22:43:27 23° SSW 22:46:38 49° W 22:51:54 10° NNW
Cosmos 1844 Rocket 2.6 22:44:31 10° NNW 22:50:08 83° NE 22:52:00 44° SE
Cosmos 2034 Rocket 4.3 22:49:06 38° SE 22:50:52 49° E 22:56:50 10° NNE
Landsat 7 4.0 22:49:09 38° S 22:50:52 65° WSW 22:55:39 10° NNW
Cosmos 1092 Rocket 4.5 22:46:16 10° N 22:52:24 48° ENE 22:54:32 35° ESE
Cosmos 921 Rocket 3.0 22:49:29 10° NNW 22:53:56 71° ENE 22:54:34 60° ESE
Cosmos 1378 3.0 22:52:02 10° NNW 22:55:51 87° ENE 22:55:57 84° SE
TRAILBLAZER 4.5 22:52:49 10° NW 22:57:27 80° SW 22:58:10 62° SSE
SL-16 R/B 2.3 22:52:45 10° SW 22:58:26 75° NW 23:04:09 10° NNE
CZ-4C R/B 3.9 23:01:36 45° SSW 23:02:38 57° WSW 23:06:53 10° NNW
Cosmos 1844 3.6 22:58:12 10° NNW 23:03:56 82° NE 23:05:34 49° SE
GP-B 3.3 22:59:57 10° N 23:04:23 67° W 23:05:35 45° SSW
Cosmos 1707 3.9 23:00:52 10° NNW 23:04:31 37° W 23:05:26 32° SW
CRYOSAT 2 4.3 23:00:48 10° N 23:05:43 67° E 23:06:28 58° SE
Okean 3 Rocket 4.1 23:01:33 10° NNW 23:05:52 52° W 23:07:02 40° SW
Terra 2.0 23:04:52 46° SSW 23:06:08 65° WSW 23:10:54 10° NNW
Cosmos 2360 Rocket 2.1 23:05:59 44° S 23:07:42 66° ESE 23:13:21 10° NE
Cosmos 1980 Rocket 3.7 23:02:31 10° WSW 23:07:47 37° NW 23:13:05 10° NNE
Lacrosse 4 Rocket 2.5 23:10:28 35° ENE 23:10:28 35° ENE 23:13:26 10° NE
Cosmos 1408 Rocket 3.4 23:04:45 10° NNW 23:09:17 88° E 23:09:47 70° SSE
Cosmos 1513 Rocket 4.4 23:08:17 43° SSE 23:10:21 70° E 23:16:40 10° NNE
In-Cosmos 22 4.1 23:05:16 10° NNW 23:10:49 80° ENE 23:12:14 52° SSE
Cosmos 1464 Rocket 3.9 23:08:22 38° S 23:11:02 82° E 23:17:24 10° NNE
SAR-Lupe-2 3.8 23:12:21 67° N 23:12:21 67° N 23:15:34 10° NNW
Cosmos 1076 Rocket 3.3 23:07:47 10° NNW 23:12:03 81° W 23:12:23 74° SSW
Nadezhda 4 Rocket 4.0 23:06:11 10° N 23:12:34 78° ENE 23:14:36 46° SSE
Cosmos 2369 Rocket 4.4 23:10:36 10° NNW 23:14:37 19° NNE 23:18:38 10° ENE
CZ-4B R/B 3.6 23:10:06 10° NNE 23:14:51 66° WNW 23:16:58 32° SW
Cosmos 1743 Rocket 3.8 23:11:28 10° N 23:15:54 56° ENE 23:16:04 55° E
Cosmos 1437 3.8 23:15:05 10° NNW 23:17:46 45° WNW 23:17:46 45° WNW
Meteor 1-21 Rocket 4.2 23:13:00 10° NNW 23:18:52 75° ENE 23:20:14 53° SE
CZ-4 R/B 4.0 23:15:58 10° NNE 23:20:43 70° WNW 23:22:22 40° SW
Cosmos 2263 Rocket 4.1 23:18:56 10° WNW 23:22:49 20° W 23:25:27 14° SW
Meteor 1-22 Rocket 4.1 23:21:34 49° S 23:23:10 84° ESE 23:28:44 10° NNE
ALOS 2 3.7 23:22:54 33° ENE 23:23:12 33° ENE 23:27:08 10° N
Cosmos 2219 Rocket 3.4 23:26:38 27° E 23:26:38 27° E 23:30:22 10° NE
ATLAS CENTAUR R/B 3.2 23:22:51 10° NW 23:27:05 31° NNE 23:29:27 19° ENE
IGS 5A 4.2 23:27:04 41° WSW 23:27:29 42° W 23:31:29 10° NNW
Cosmos 1900 4.3 23:28:02 64° ESE 23:28:02 64° ESE 23:32:44 10° NE
Cosmos 1680 Rocket 3.9 23:33:08 46° E 23:33:08 46° E 23:37:53 10° NE
COSMOS 2455 4.1 23:38:06 26° E 23:38:06 26° E 23:41:50 10° NE
CZ-4B R/B 3.4 23:37:33 25° NE 23:37:33 25° NE 23:40:07 10° N
Cosmos 2026 Rocket 4.2 23:32:09 10° N 23:38:12 56° ENE 23:39:30 47° ESE
ATLAS 3B R/B 3.8 23:40:52 30° ESE 23:40:52 30° ESE 23:46:26 10° ENE
Cosmos 2322 Rocket 3.3 23:37:50 10° WSW 23:43:11 42° NW 23:48:34 10° NNE
DMSP B5D2-2 4.2 23:38:44 10° NNE 23:44:01 74° WNW 23:45:26 49° SW
Cosmos 1766 Rocket 4.2 23:42:43 10° NNW 23:47:01 47° W 23:47:18 46° WSW
SL-16 R/B 4.2 23:52:18 15° E 23:52:18 15° E 23:54:23 10° ENE
Cosmos 2237 Rocket 3.4 23:52:15 28° E 23:52:15 28° E 23:56:10 10° NE
Cosmos 2322 3.8 23:50:56 34° SW 23:53:29 73° NW 23:59:13 10° NNE
Cosmos 1470 4.3 23:55:29 28° NE 23:55:29 28° NE 23:57:51 10° NNE
